Powrót do katalogu

GSAT 3

EDUSAT

AktywnyŁącznośćGEO
NORAD 28417·PAYLOAD·🇮🇳 India

Wystrzelony Sep 20, 2004 z Satish Dhawan Space Centre

Loading…

TLE

ŚwieżeSource: Space-Track

Epoka: Sep 14, 2026, 13:24 UTC

1 28417U 04036A   26257.55900444  .00000063  00000-0  00000-0 0  9997
2 28417  11.5304  40.5648 0004327 169.7254 205.8923  0.99265802 80003

Śledź GSAT 3 w czasie rzeczywistym z AllMySat

Download on the App Store